Time,TemperatureF,DewpointF,PressureIn,WindDirection,WindDirectionDegrees,WindSpeedMPH,WindSpeedGustMPH,Humidity,HourlyPrecipIn,Conditions,Clouds,dailyrainin,SoftwareType,DateUTC
2014-02-10 00:02:00,36.0,28.1,29.95,South,180,1.6,3.1,64,0.00,,,0.05,fowsr,2014-02-10 08:02:00,
2014-02-10 00:07:00,36.0,28.1,29.94,South,180,1.6,3.1,64,0.00,,,0.05,fowsr,2014-02-10 08:07:00,
2014-02-10 00:12:00,36.0,28.1,29.94,SW,225,3.8,8.3,64,0.01,,,0.06,fowsr,2014-02-10 08:12:00,
2014-02-10 00:17:00,36.1,28.2,29.95,South,180,2.2,5.4,64,0.01,,,0.06,fowsr,2014-02-10 08:17:00,
2014-02-10 00:22:00,36.1,28.0,29.94,South,180,1.6,2.2,63,0.01,,,0.06,fowsr,2014-02-10 08:22:00,
2014-02-10 00:27:00,36.0,27.8,29.94,SW,225,0.7,3.8,63,0.01,,,0.06,fowsr,2014-02-10 08:27:00,
2014-02-10 00:32:00,36.1,28.0,29.95,NW,315,1.6,2.2,63,0.01,,,0.06,fowsr,2014-02-10 08:32:00,
2014-02-10 00:37:00,36.1,28.0,29.94,NW,315,0.7,2.2,63,0.01,,,0.06,fowsr,2014-02-10 08:37:00,
2014-02-10 00:42:00,36.1,28.0,29.94,SW,225,1.6,3.1,63,0.01,,,0.06,fowsr,2014-02-10 08:42:00,
2014-02-10 00:47:00,36.3,27.8,29.93,SW,225,1.6,2.2,62,0.01,,,0.06,fowsr,2014-02-10 08:47:00,
2014-02-10 00:52:00,36.3,27.8,29.93,West,270,1.6,3.1,62,0.01,,,0.06,fowsr,2014-02-10 08:52:00,
2014-02-10 00:57:00,36.5,28.0,29.93,SW,225,1.6,3.1,62,0.01,,,0.06,fowsr,2014-02-10 08:57:00,
2014-02-10 01:02:00,36.3,27.8,29.93,West,270,1.6,3.1,62,0.01,,,0.06,fowsr,2014-02-10 09:02:00,
2014-02-10 01:07:00,36.3,27.6,29.94,South,180,0.7,3.1,61,0.02,,,0.07,fowsr,2014-02-10 09:07:00,
2014-02-10 01:12:00,36.1,27.1,29.93,West,270,0.7,2.2,60,0.02,,,0.07,fowsr,2014-02-10 09:12:00,
2014-02-10 01:17:00,36.1,27.1,29.93,South,180,0.7,1.6,60,0.02,,,0.08,fowsr,2014-02-10 09:17:00,
2014-02-10 01:22:00,36.0,26.7,29.93,South,180,0.7,2.2,59,0.02,,,0.08,fowsr,2014-02-10 09:22:00,
2014-02-10 01:27:00,36.0,26.7,29.93,SW,225,0.0,1.6,59,0.02,,,0.08,fowsr,2014-02-10 09:27:00,
2014-02-10 01:32:00,36.0,26.7,29.93,NW,315,0.7,1.6,59,0.02,,,0.08,fowsr,2014-02-10 09:32:00,
2014-02-10 01:37:00,36.0,26.7,29.93,West,270,0.0,1.6,59,0.04,,,0.09,fowsr,2014-02-10 09:37:00,
2014-02-10 01:42:00,36.0,26.7,29.93,West,270,0.7,1.6,59,0.04,,,0.09,fowsr,2014-02-10 09:42:00,
2014-02-10 01:47:00,36.0,26.4,29.92,West,270,1.6,3.1,58,0.05,,,0.11,fowsr,2014-02-10 09:47:00,
2014-02-10 01:52:00,35.8,26.2,29.93,West,270,1.6,2.2,58,0.05,,,0.11,fowsr,2014-02-10 09:52:00,
2014-02-10 01:57:00,35.8,25.9,29.92,West,270,0.0,2.2,57,0.05,,,0.11,fowsr,2014-02-10 09:57:00,
2014-02-10 02:02:00,35.8,25.9,29.93,South,180,1.6,2.2,57,0.05,,,0.11,fowsr,2014-02-10 10:02:00,
2014-02-10 02:07:00,35.8,25.9,29.92,South,180,0.0,2.2,57,0.05,,,0.11,fowsr,2014-02-10 10:07:00,
2014-02-10 02:12:00,35.8,25.9,29.92,SW,225,0.0,1.6,57,0.05,,,0.11,fowsr,2014-02-10 10:12:00,
2014-02-10 02:17:00,35.8,25.6,29.93,South,180,0.7,1.6,56,0.04,,,0.11,fowsr,2014-02-10 10:17:00,
2014-02-10 02:22:00,35.8,25.6,29.92,South,180,0.0,2.2,56,0.02,,,0.11,fowsr,2014-02-10 10:22:00,
2014-02-10 02:27:00,35.8,25.6,29.92,South,180,1.6,3.1,56,0.04,,,0.12,fowsr,2014-02-10 10:27:00,
2014-02-10 02:32:00,35.8,25.6,29.91,South,180,1.6,3.1,56,0.04,,,0.12,fowsr,2014-02-10 10:32:00,
2014-02-10 02:37:00,35.8,25.3,29.91,West,270,0.7,3.1,55,0.05,,,0.13,fowsr,2014-02-10 10:37:00,
2014-02-10 02:42:00,35.8,25.3,29.91,South,180,1.6,3.1,55,0.04,,,0.13,fowsr,2014-02-10 10:42:00,
2014-02-10 02:47:00,36.0,25.5,29.91,West,270,2.2,5.4,55,0.04,,,0.13,fowsr,2014-02-10 10:47:00,
2014-02-10 02:52:00,36.1,25.3,29.91,West,270,1.6,3.1,54,0.02,,,0.13,fowsr,2014-02-10 10:52:00,
2014-02-10 02:57:00,36.1,25.3,29.91,SW,225,0.0,1.6,54,0.04,,,0.14,fowsr,2014-02-10 10:57:00,
2014-02-10 03:02:00,36.0,25.2,29.91,South,180,1.6,3.1,54,0.04,,,0.14,fowsr,2014-02-10 11:02:00,
2014-02-10 03:07:00,36.1,25.0,29.91,South,180,1.6,2.2,53,0.05,,,0.15,fowsr,2014-02-10 11:07:00,
2014-02-10 03:12:00,36.0,24.8,29.91,West,270,0.7,2.2,53,0.05,,,0.15,fowsr,2014-02-10 11:12:00,
2014-02-10 03:17:00,36.1,24.7,29.90,NW,315,1.6,3.1,52,0.05,,,0.15,fowsr,2014-02-10 11:17:00,
2014-02-10 03:22:00,36.1,24.7,29.90,West,270,3.1,6.9,52,0.06,,,0.17,fowsr,2014-02-10 11:22:00,
2014-02-10 03:27:00,36.3,24.2,29.90,West,270,1.6,3.1,50,0.06,,,0.17,fowsr,2014-02-10 11:27:00,
2014-02-10 03:32:00,36.3,23.9,29.90,SW,225,1.6,3.1,49,0.06,,,0.18,fowsr,2014-02-10 11:32:00,
2014-02-10 03:37:00,36.3,23.9,29.90,SW,225,1.6,3.8,49,0.06,,,0.18,fowsr,2014-02-10 11:37:00,
2014-02-10 03:42:00,36.3,23.9,29.90,South,180,0.7,2.2,49,0.05,,,0.18,fowsr,2014-02-10 11:42:00,
2014-02-10 03:47:00,36.1,23.7,29.89,SW,225,0.7,2.2,49,0.05,,,0.18,fowsr,2014-02-10 11:47:00,
2014-02-10 03:52:00,36.3,23.5,29.88,SW,225,1.6,3.8,48,0.05,,,0.18,fowsr,2014-02-10 11:52:00,
2014-02-10 03:57:00,36.3,23.5,29.88,West,270,1.6,3.1,48,0.05,,,0.18,fowsr,2014-02-10 11:57:00,
2014-02-10 04:02:00,36.3,23.5,29.89,South,180,0.7,3.1,48,0.05,,,0.19,fowsr,2014-02-10 12:02:00,
2014-02-10 04:07:00,36.5,23.7,29.89,South,180,0.7,2.2,48,0.05,,,0.19,fowsr,2014-02-10 12:07:00,
2014-02-10 04:12:00,36.7,23.5,29.88,South,180,0.7,3.1,47,0.05,,,0.19,fowsr,2014-02-10 12:12:00,
2014-02-10 04:17:00,36.5,23.3,29.89,West,270,0.7,2.2,47,0.04,,,0.19,fowsr,2014-02-10 12:17:00,
2014-02-10 04:22:00,36.3,22.8,29.88,West,270,0.7,2.2,46,0.05,,,0.20,fowsr,2014-02-10 12:22:00,
2014-02-10 04:27:00,36.1,22.7,29.88,SW,225,1.6,5.4,46,0.04,,,0.20,fowsr,2014-02-10 12:27:00,
2014-02-10 04:32:00,36.3,22.5,29.88,West,270,1.6,3.1,45,0.04,,,0.20,fowsr,2014-02-10 12:32:00,
2014-02-10 04:37:00,36.3,22.5,29.88,South,180,0.7,1.6,45,0.02,,,0.20,fowsr,2014-02-10 12:37:00,
2014-02-10 04:42:00,36.3,22.5,29.87,West,270,0.0,2.2,45,0.02,,,0.20,fowsr,2014-02-10 12:42:00,
2014-02-10 04:47:00,36.1,21.9,29.88,West,270,0.7,2.2,44,0.04,,,0.21,fowsr,2014-02-10 12:47:00,
2014-02-10 04:52:00,36.1,21.5,29.87,SW,225,0.7,3.1,43,0.04,,,0.21,fowsr,2014-02-10 12:52:00,
2014-02-10 04:57:00,36.1,21.5,29.87,South,180,0.7,3.1,43,0.04,,,0.21,fowsr,2014-02-10 12:57:00,
2014-02-10 05:02:00,36.1,21.5,29.87,South,180,0.0,1.6,43,0.05,,,0.22,fowsr,2014-02-10 13:02:00,
2014-02-10 05:07:00,36.1,21.5,29.87,SW,225,0.7,1.6,43,0.04,,,0.22,fowsr,2014-02-10 13:07:00,
2014-02-10 05:12:00,36.3,21.3,29.86,South,180,1.6,2.2,42,0.04,,,0.22,fowsr,2014-02-10 13:12:00,
2014-02-10 05:17:00,36.3,21.3,29.87,West,270,0.7,2.2,42,0.04,,,0.22,fowsr,2014-02-10 13:17:00,
2014-02-10 05:22:00,36.3,21.3,29.86,SW,225,0.0,0.7,42,0.05,,,0.24,fowsr,2014-02-10 13:22:00,
2014-02-10 05:27:00,36.3,21.3,29.86,South,180,0.0,1.6,42,0.04,,,0.24,fowsr,2014-02-10 13:27:00,
2014-02-10 05:32:00,36.3,20.9,29.85,SW,225,0.0,1.6,41,0.04,,,0.24,fowsr,2014-02-10 13:32:00,
2014-02-10 05:37:00,36.3,20.9,29.85,West,270,1.6,3.1,41,0.05,,,0.25,fowsr,2014-02-10 13:37:00,
2014-02-10 05:42:00,36.3,20.9,29.85,SW,225,0.7,1.6,41,0.06,,,0.26,fowsr,2014-02-10 13:42:00,
2014-02-10 05:47:00,36.5,20.7,29.85,SW,225,0.7,2.2,40,0.07,,,0.27,fowsr,2014-02-10 13:47:00,
2014-02-10 05:52:00,36.5,20.7,29.84,South,180,0.7,2.2,40,0.06,,,0.27,fowsr,2014-02-10 13:52:00,
2014-02-10 05:57:00,36.5,20.7,29.85,South,180,0.7,2.2,40,0.06,,,0.27,fowsr,2014-02-10 13:57:00,
2014-02-10 06:02:00,36.5,20.7,29.84,South,180,0.7,2.2,40,0.06,,,0.27,fowsr,2014-02-10 14:02:00,
2014-02-10 06:07:00,36.7,20.0,29.84,West,270,0.7,3.1,38,0.06,,,0.28,fowsr,2014-02-10 14:07:00,
2014-02-10 06:12:00,36.7,19.6,29.84,South,180,1.6,2.2,37,0.06,,,0.28,fowsr,2014-02-10 14:12:00,
2014-02-10 06:17:00,36.7,19.6,29.84,South,180,0.7,2.2,37,0.06,,,0.28,fowsr,2014-02-10 14:17:00,
2014-02-10 06:22:00,36.7,19.1,29.84,SW,225,1.6,2.2,36,0.07,,,0.29,fowsr,2014-02-10 14:22:00,
2014-02-10 06:27:00,36.7,19.1,29.83,West,270,1.6,2.2,36,0.06,,,0.29,fowsr,2014-02-10 14:27:00,
2014-02-10 06:32:00,36.7,18.7,29.83,South,180,1.6,2.2,35,0.06,,,0.29,fowsr,2014-02-10 14:32:00,
2014-02-10 06:37:00,36.7,18.7,29.83,South,180,1.6,2.2,35,0.06,,,0.29,fowsr,2014-02-10 14:37:00,
2014-02-10 06:42:00,36.7,17.8,29.83,NW,315,0.7,1.6,33,0.06,,,0.31,fowsr,2014-02-10 14:42:00,
2014-02-10 06:47:00,36.7,17.8,29.83,South,180,1.6,2.2,33,0.06,,,0.32,fowsr,2014-02-10 14:47:00,
2014-02-10 06:52:00,36.7,15.2,29.83,SW,225,0.0,0.7,28,0.05,,,0.32,fowsr,2014-02-10 14:52:00,
2014-02-10 06:57:00,36.7,15.7,29.83,South,180,0.0,1.6,29,0.05,,,0.32,fowsr,2014-02-10 14:57:00,
2014-02-10 07:02:00,36.7,15.2,29.83,West,270,1.6,3.1,28,0.06,,,0.33,fowsr,2014-02-10 15:02:00,
2014-02-10 07:07:00,36.7,14.0,29.83,South,180,0.7,1.6,26,0.07,,,0.34,fowsr,2014-02-10 15:07:00,
2014-02-10 07:12:00,36.7,13.4,29.83,West,270,0.0,0.7,25,0.06,,,0.34,fowsr,2014-02-10 15:12:00,
2014-02-10 07:17:00,36.7,12.8,29.83,South,180,0.7,1.6,24,0.06,,,0.34,fowsr,2014-02-10 15:17:00,
2014-02-10 07:22:00,36.7,11.5,29.83,West,270,0.0,1.6,22,0.07,,,0.35,fowsr,2014-02-10 15:22:00,
2014-02-10 07:27:00,36.7,10.8,29.83,South,180,0.7,2.2,21,0.07,,,0.37,fowsr,2014-02-10 15:27:00,
2014-02-10 07:32:00,36.7,9.3,29.83,West,270,0.0,1.6,19,0.07,,,0.37,fowsr,2014-02-10 15:32:00,
2014-02-10 07:37:00,36.7,6.7,29.83,South,180,0.0,1.6,16,0.07,,,0.37,fowsr,2014-02-10 15:37:00,
2014-02-10 07:42:00,36.7,4.8,29.83,SW,225,0.7,2.2,14,0.08,,,0.38,fowsr,2014-02-10 15:42:00,
2014-02-10 07:47:00,36.9,3.9,29.83,West,270,0.7,2.2,13,0.07,,,0.38,fowsr,2014-02-10 15:47:00,
2014-02-10 07:52:00,36.9,1.5,29.82,SE,135,0.0,0.0,11,0.06,,,0.38,fowsr,2014-02-10 15:52:00,
2014-02-10 07:57:00,37.0,0.0,29.83,South,180,0.7,1.6,255,0.07,,,0.39,fowsr,2014-02-10 15:57:00,
2014-02-10 08:02:00,37.0,0.0,29.83,SW,225,0.0,1.6,255,0.07,,,0.39,fowsr,2014-02-10 16:02:00,
2014-02-10 08:07:00,37.2,0.0,29.83,West,270,0.0,1.6,255,0.06,,,0.39,fowsr,2014-02-10 16:07:00,
2014-02-10 08:12:00,37.2,0.0,29.83,West,270,0.0,0.0,255,0.05,,,0.39,fowsr,2014-02-10 16:12:00,
2014-02-10 08:17:00,37.2,0.0,29.82,West,270,0.0,0.7,255,0.06,,,0.40,fowsr,2014-02-10 16:17:00,
2014-02-10 08:22:00,37.2,0.0,29.82,SW,225,0.7,1.6,255,0.07,,,0.41,fowsr,2014-02-10 16:22:00,
2014-02-10 08:27:00,37.4,0.0,29.83,South,180,0.0,0.0,255,0.07,,,0.43,fowsr,2014-02-10 16:27:00,
2014-02-10 08:32:00,37.6,0.0,29.82,South,180,0.7,1.6,255,0.07,,,0.44,fowsr,2014-02-10 16:32:00,
2014-02-10 08:37:00,37.8,0.0,29.82,West,270,1.6,3.1,255,0.07,,,0.44,fowsr,2014-02-10 16:37:00,
2014-02-10 08:42:00,37.8,0.0,29.82,South,180,0.7,1.6,255,0.08,,,0.45,fowsr,2014-02-10 16:42:00,
2014-02-10 08:47:00,37.8,0.0,29.82,South,180,0.0,0.0,255,0.07,,,0.45,fowsr,2014-02-10 16:47:00,
2014-02-10 08:52:00,38.1,0.0,29.83,South,180,0.0,0.7,255,0.07,,,0.45,fowsr,2014-02-10 16:52:00,
2014-02-10 08:57:00,38.1,0.0,29.83,South,180,0.7,1.6,255,0.08,,,0.46,fowsr,2014-02-10 16:57:00,
2014-02-10 09:02:00,38.1,0.0,29.83,South,180,0.7,2.2,255,0.07,,,0.46,fowsr,2014-02-10 17:02:00,
2014-02-10 09:07:00,38.1,0.0,29.83,South,180,0.7,1.6,255,0.07,,,0.46,fowsr,2014-02-10 17:07:00,
2014-02-10 09:12:00,38.3,0.0,29.83,SW,225,0.0,0.0,255,0.07,,,0.46,fowsr,2014-02-10 17:12:00,
2014-02-10 09:17:00,38.5,0.0,29.83,NE,45,0.0,0.7,255,0.07,,,0.46,fowsr,2014-02-10 17:17:00,
2014-02-10 09:22:00,38.5,0.0,29.83,South,180,0.7,2.2,255,0.08,,,0.48,fowsr,2014-02-10 17:22:00,
2014-02-10 09:27:00,38.7,0.0,29.83,NW,315,0.0,0.7,255,0.07,,,0.48,fowsr,2014-02-10 17:27:00,
2014-02-10 09:33:00,39.0,0.0,29.84,North,0,0.7,3.1,255,0.07,,,0.50,fowsr,2014-02-10 17:33:00,
2014-02-10 09:42:00,39.6,0.0,29.84,East,90,1.6,3.1,255,0.06,,,0.50,fowsr,2014-02-10 17:42:00,
2014-02-10 09:47:00,39.9,0.0,29.84,SE,135,0.0,0.7,255,0.05,,,0.50,fowsr,2014-02-10 17:47:00,
2014-02-10 09:52:00,40.1,0.0,29.84,East,90,1.6,3.1,255,0.05,,,0.50,fowsr,2014-02-10 17:52:00,
2014-02-10 09:57:00,40.3,0.0,29.85,NE,45,0.7,2.2,255,0.05,,,0.50,fowsr,2014-02-10 17:57:00,
2014-02-10 10:02:00,40.5,0.0,29.85,East,90,0.0,0.7,255,0.04,,,0.50,fowsr,2014-02-10 18:02:00,
2014-02-10 10:07:00,41.0,0.0,29.85,East,90,0.0,1.6,255,0.04,,,0.50,fowsr,2014-02-10 18:07:00,
2014-02-10 10:12:00,41.4,0.0,29.85,East,90,0.7,2.2,255,0.04,,,0.50,fowsr,2014-02-10 18:12:00,
2014-02-10 10:18:00,41.9,0.0,29.86,SW,225,0.0,1.6,255,0.04,,,0.50,fowsr,2014-02-10 18:18:00,
2014-02-10 10:23:00,42.3,0.0,29.86,West,270,0.7,1.6,255,0.01,,,0.50,fowsr,2014-02-10 18:23:00,
2014-02-10 10:28:00,42.4,0.0,29.87,East,90,0.7,1.6,255,0.01,,,0.50,fowsr,2014-02-10 18:28:00,
2014-02-10 10:33:00,42.8,0.0,29.87,East,90,0.0,1.6,255,0.01,,,0.50,fowsr,2014-02-10 18:33:00,
2014-02-10 10:38:00,42.8,0.0,29.87,East,90,0.0,1.6,255,0.00,,,0.50,fowsr,2014-02-10 18:38:00,
2014-02-10 10:43:00,44.8,6.1,29.88,South,180,0.7,1.6,10,0.00,,,0.50,fowsr,2014-02-10 18:43:00,
2014-02-10 10:48:00,45.7,12.9,29.88,South,180,0.7,2.2,15,0.00,,,0.50,fowsr,2014-02-10 18:48:00,
2014-02-10 10:53:00,46.2,17.0,29.88,NW,315,1.6,3.8,19,0.01,,,0.51,fowsr,2014-02-10 18:53:00,
2014-02-10 10:58:00,46.4,20.2,29.88,West,270,0.7,2.2,23,0.01,,,0.51,fowsr,2014-02-10 18:58:00,
2014-02-10 11:03:00,46.6,21.0,29.88,SE,135,0.7,3.1,24,0.01,,,0.51,fowsr,2014-02-10 19:03:00,
2014-02-10 11:08:00,46.8,23.1,29.88,South,180,0.0,0.7,27,0.01,,,0.51,fowsr,2014-02-10 19:08:00,
2014-02-10 11:13:00,47.1,24.6,29.88,South,180,0.0,1.6,29,0.01,,,0.51,fowsr,2014-02-10 19:13:00,
2014-02-10 11:18:00,47.1,25.2,29.88,East,90,0.7,1.6,30,0.01,,,0.51,fowsr,2014-02-10 19:18:00,
2014-02-10 11:23:00,47.5,26.6,29.88,SE,135,0.0,1.6,32,0.01,,,0.51,fowsr,2014-02-10 19:23:00,
2014-02-10 11:28:00,47.7,27.8,29.89,West,270,0.0,0.7,34,0.01,,,0.51,fowsr,2014-02-10 19:28:00,
2014-02-10 11:33:00,47.7,25.1,29.88,South,180,0.0,1.6,29,0.01,,,0.51,fowsr,2014-02-10 19:33:00,
2014-02-10 11:38:00,47.8,25.2,29.88,South,180,0.0,0.7,29,0.01,,,0.51,fowsr,2014-02-10 19:38:00,
2014-02-10 11:43:00,47.8,24.6,29.88,South,180,1.6,3.1,28,0.01,,,0.51,fowsr,2014-02-10 19:43:00,
2014-02-10 11:48:00,48.0,24.8,29.89,South,180,1.6,3.8,28,0.01,,,0.51,fowsr,2014-02-10 19:48:00,
2014-02-10 11:53:00,48.0,25.4,29.88,East,90,0.7,1.6,29,0.01,,,0.51,fowsr,2014-02-10 19:53:00,
2014-02-10 11:58:00,48.0,24.2,29.88,East,90,0.0,1.6,27,0.00,,,0.51,fowsr,2014-02-10 19:58:00,
2014-02-10 12:03:00,48.0,24.8,29.88,SE,135,1.6,3.8,28,0.00,,,0.51,fowsr,2014-02-10 20:03:00,
2014-02-10 12:08:00,48.0,24.8,29.88,West,270,0.7,3.8,28,0.00,,,0.51,fowsr,2014-02-10 20:08:00,
2014-02-10 12:13:00,48.0,24.8,29.88,West,270,0.7,2.2,28,0.00,,,0.51,fowsr,2014-02-10 20:13:00,
2014-02-10 12:18:00,47.7,23.9,29.87,South,180,1.6,3.8,27,0.01,,,0.52,fowsr,2014-02-10 20:18:00,
2014-02-10 12:23:00,47.7,24.5,29.88,South,180,0.7,2.2,28,0.02,,,0.53,fowsr,2014-02-10 20:23:00,
2014-02-10 12:28:00,47.5,23.7,29.88,South,180,0.0,2.2,27,0.02,,,0.53,fowsr,2014-02-10 20:28:00,
2014-02-10 12:33:00,47.7,24.5,29.88,South,180,0.0,1.6,28,0.04,,,0.54,fowsr,2014-02-10 20:33:00,
2014-02-10 12:42:00,47.8,25.2,29.88,West,270,2.2,5.4,29,0.05,,,0.56,fowsr,2014-02-10 20:42:00,
2014-02-10 12:47:00,48.0,24.8,29.87,South,180,0.0,2.2,28,0.05,,,0.56,fowsr,2014-02-10 20:47:00,
2014-02-10 12:52:00,48.0,25.4,29.87,East,90,0.0,0.7,29,0.06,,,0.57,fowsr,2014-02-10 20:52:00,
2014-02-10 12:57:00,48.2,26.6,29.87,South,180,1.6,3.1,31,0.06,,,0.57,fowsr,2014-02-10 20:57:00,
2014-02-10 13:03:00,48.2,25.5,29.88,SW,225,0.7,3.1,29,0.07,,,0.58,fowsr,2014-02-10 21:03:00,
2014-02-10 13:08:00,48.0,25.9,29.88,SW,225,0.0,0.7,30,0.08,,,0.59,fowsr,2014-02-10 21:08:00,
2014-02-10 13:13:00,47.7,25.6,29.88,West,270,0.0,0.0,30,0.09,,,0.60,fowsr,2014-02-10 21:13:00,
2014-02-10 13:18:00,47.8,26.3,29.88,NE,45,0.7,2.2,31,0.11,,,0.61,fowsr,2014-02-10 21:18:00,
2014-02-10 13:23:00,47.7,25.1,29.88,SW,225,0.7,1.6,29,0.11,,,0.63,fowsr,2014-02-10 21:23:00,
2014-02-10 13:28:00,47.5,26.0,29.88,South,180,2.2,3.8,31,0.14,,,0.66,fowsr,2014-02-10 21:28:00,
2014-02-10 13:33:00,47.5,26.0,29.88,South,180,0.0,0.7,31,0.13,,,0.66,fowsr,2014-02-10 21:33:00,
2014-02-10 13:38:00,47.5,26.6,29.88,South,180,1.6,2.2,32,0.13,,,0.67,fowsr,2014-02-10 21:38:00,
2014-02-10 13:43:00,47.5,26.0,29.88,SW,225,3.1,6.0,31,0.13,,,0.69,fowsr,2014-02-10 21:43:00,
2014-02-10 13:48:00,47.5,25.5,29.88,West,270,0.0,0.7,30,0.15,,,0.71,fowsr,2014-02-10 21:48:00,
2014-02-10 13:53:00,47.5,25.5,29.88,NW,315,2.2,4.5,30,0.15,,,0.71,fowsr,2014-02-10 21:53:00,
2014-02-10 13:58:00,47.7,26.2,29.88,West,270,4.5,7.6,31,0.14,,,0.71,fowsr,2014-02-10 21:58:00,
2014-02-10 14:03:00,47.7,26.2,29.88,South,180,2.2,6.9,31,0.13,,,0.71,fowsr,2014-02-10 22:03:00,
2014-02-10 14:08:00,47.7,26.7,29.88,SE,135,3.8,8.3,32,0.14,,,0.72,fowsr,2014-02-10 22:08:00,
2014-02-10 14:13:00,47.3,25.3,29.88,West,270,1.6,3.8,30,0.14,,,0.72,fowsr,2014-02-10 22:13:00,
2014-02-10 14:18:00,47.3,24.2,29.88,South,180,3.1,6.0,28,0.13,,,0.73,fowsr,2014-02-10 22:18:00,
2014-02-10 14:23:00,47.3,24.2,29.88,South,180,2.2,9.2,28,0.11,,,0.73,fowsr,2014-02-10 22:23:00,
2014-02-10 14:28:00,47.1,23.4,29.88,East,90,3.1,9.8,27,0.11,,,0.73,fowsr,2014-02-10 22:28:00,
2014-02-10 14:33:00,46.9,22.6,29.89,South,180,0.7,2.2,26,0.08,,,0.73,fowsr,2014-02-10 22:33:00,
2014-02-10 14:38:00,46.9,22.6,29.89,SW,225,2.2,3.8,26,0.09,,,0.76,fowsr,2014-02-10 22:38:00,
2014-02-10 14:43:00,46.8,22.5,29.88,South,180,3.1,8.3,26,0.08,,,0.77,fowsr,2014-02-10 22:43:00,
2014-02-10 14:48:00,46.6,21.7,29.88,NNE,22,2.2,4.5,25,0.08,,,0.77,fowsr,2014-02-10 22:48:00,
2014-02-10 14:53:00,46.4,20.2,29.88,South,180,1.6,3.1,23,0.07,,,0.77,fowsr,2014-02-10 22:53:00,
2014-02-10 14:58:00,46.6,22.3,29.88,SE,135,0.0,0.0,26,0.06,,,0.77,fowsr,2014-02-10 22:58:00,
2014-02-10 15:03:00,46.6,22.3,29.88,SW,225,0.0,1.6,26,0.06,,,0.77,fowsr,2014-02-10 23:03:00,
2014-02-10 15:08:00,46.6,22.3,29.88,SW,225,0.0,1.6,26,0.06,,,0.77,fowsr,2014-02-10 23:08:00,
2014-02-10 15:13:00,46.4,22.8,29.88,South,180,1.6,2.2,27,0.06,,,0.77,fowsr,2014-02-10 23:13:00,
2014-02-10 15:18:00,46.6,21.7,29.89,West,270,3.1,4.5,25,0.05,,,0.77,fowsr,2014-02-10 23:18:00,
2014-02-10 15:23:00,46.8,22.5,29.89,South,180,0.7,2.2,26,0.04,,,0.77,fowsr,2014-02-10 23:23:00,
2014-02-10 15:28:00,46.9,23.9,29.89,SW,225,0.7,1.6,28,0.04,,,0.77,fowsr,2014-02-10 23:28:00,
2014-02-10 15:33:00,46.9,23.2,29.89,SE,135,0.0,1.6,27,0.04,,,0.77,fowsr,2014-02-10 23:33:00,
2014-02-10 15:38:00,46.9,22.6,29.89,NE,45,0.7,3.1,26,0.04,,,0.77,fowsr,2014-02-10 23:38:00,
2014-02-10 15:44:00,46.8,19.7,29.89,East,90,1.6,3.8,22,0.00,,,0.77,fowsr,2014-02-10 23:44:00,
2014-02-10 15:49:00,46.8,18.2,29.89,SW,225,0.0,1.6,20,0.00,,,0.77,fowsr,2014-02-10 23:49:00,
2014-02-10 15:54:00,46.6,17.3,29.89,NW,315,0.7,3.1,19,0.00,,,0.77,fowsr,2014-02-10 23:54:00,
2014-02-10 16:02:00,46.6,13.6,29.89,SE,135,0.7,2.2,15,0.00,,,0.77,fowsr,2014-02-11 00:02:00,
2014-02-10 16:07:00,46.4,11.2,29.90,SW,225,0.0,0.0,13,0.00,,,0.77,fowsr,2014-02-11 00:07:00,
2014-02-10 16:12:00,46.2,9.9,29.90,SE,135,0.7,2.2,12,0.00,,,0.77,fowsr,2014-02-11 00:12:00,
2014-02-10 16:17:00,46.0,7.1,29.90,East,90,0.7,1.6,10,0.00,,,0.77,fowsr,2014-02-11 00:17:00,
2014-02-10 16:22:00,45.9,9.6,29.90,SW,225,0.0,2.2,12,0.00,,,0.77,fowsr,2014-02-11 00:22:00,
2014-02-10 16:27:00,45.9,0.0,29.90,South,180,0.7,2.2,255,0.00,,,0.77,fowsr,2014-02-11 00:27:00,
2014-02-10 16:32:00,45.5,0.0,29.90,South,180,0.0,1.6,255,0.00,,,0.77,fowsr,2014-02-11 00:32:00,
2014-02-10 16:37:00,45.3,0.0,29.90,East,90,1.6,3.1,255,0.00,,,0.77,fowsr,2014-02-11 00:37:00,
2014-02-10 16:42:00,45.3,0.0,29.90,West,270,0.0,2.2,255,0.00,,,0.77,fowsr,2014-02-11 00:42:00,
2014-02-10 16:47:00,45.5,0.0,29.90,South,180,0.7,2.2,255,0.00,,,0.77,fowsr,2014-02-11 00:47:00,
2014-02-10 16:52:00,45.3,0.0,29.91,West,270,0.7,2.2,255,0.00,,,0.77,fowsr,2014-02-11 00:52:00,
2014-02-10 16:57:00,45.1,0.0,29.91,East,90,0.0,0.7,255,0.00,,,0.77,fowsr,2014-02-11 00:57:00,
2014-02-10 17:02:00,45.0,0.0,29.91,East,90,0.0,0.7,255,0.00,,,0.77,fowsr,2014-02-11 01:02:00,
2014-02-10 17:07:00,44.8,0.0,29.90,East,90,0.7,2.2,255,0.00,,,0.77,fowsr,2014-02-11 01:07:00,
2014-02-10 17:12:00,44.8,0.0,29.90,South,180,0.0,1.6,255,0.00,,,0.77,fowsr,2014-02-11 01:12:00,
2014-02-10 17:17:00,44.6,0.0,29.90,South,180,0.0,0.7,255,0.00,,,0.77,fowsr,2014-02-11 01:17:00,
2014-02-10 17:22:00,44.6,0.0,29.91,South,180,0.7,2.2,255,0.00,,,0.77,fowsr,2014-02-11 01:22:00,
2014-02-10 17:27:00,44.4,0.0,29.91,SW,225,0.0,0.7,255,0.00,,,0.77,fowsr,2014-02-11 01:27:00,
2014-02-10 17:32:00,44.2,0.0,29.91,South,180,0.7,1.6,255,0.00,,,0.77,fowsr,2014-02-11 01:32:00,
2014-02-10 17:37:00,44.2,0.0,29.91,South,180,0.7,1.6,255,0.00,,,0.77,fowsr,2014-02-11 01:37:00,
2014-02-10 17:42:00,44.1,0.0,29.91,North,0,0.0,0.7,255,0.00,,,0.77,fowsr,2014-02-11 01:42:00,
2014-02-10 17:47:00,43.9,0.0,29.91,South,180,0.7,1.6,255,0.00,,,0.77,fowsr,2014-02-11 01:47:00,
2014-02-10 17:52:00,43.7,0.0,29.90,SE,135,0.0,1.6,255,0.00,,,0.76,fowsr,2014-02-11 01:52:00,
2014-02-10 17:57:00,43.7,0.0,29.91,SW,225,0.7,1.6,255,0.00,,,0.76,fowsr,2014-02-11 01:57:00,
2014-02-10 18:02:00,43.7,0.0,29.90,SW,225,0.7,2.2,255,0.00,,,0.76,fowsr,2014-02-11 02:02:00,
2014-02-10 18:07:00,43.9,0.0,29.90,South,180,0.0,0.7,255,0.00,,,0.76,fowsr,2014-02-11 02:07:00,
2014-02-10 18:12:00,43.9,0.0,29.90,South,180,0.7,1.6,255,0.00,,,0.76,fowsr,2014-02-11 02:12:00,
2014-02-10 18:17:00,44.1,0.0,29.90,NE,45,2.2,5.4,255,0.00,,,0.76,fowsr,2014-02-11 02:17:00,
2014-02-10 18:22:00,44.2,0.0,29.91,South,180,0.7,3.1,255,0.00,,,0.76,fowsr,2014-02-11 02:22:00,
2014-02-10 18:27:00,44.4,0.0,29.90,West,270,0.0,1.6,255,0.00,,,0.74,fowsr,2014-02-11 02:27:00,
2014-02-10 18:32:00,44.6,0.0,29.91,East,90,0.7,1.6,255,0.00,,,0.74,fowsr,2014-02-11 02:32:00,
2014-02-10 18:37:00,45.1,0.0,29.90,East,90,0.0,1.6,255,0.00,,,0.74,fowsr,2014-02-11 02:37:00,
2014-02-10 18:42:00,45.1,0.0,29.91,SW,225,0.0,1.6,255,0.00,,,0.74,fowsr,2014-02-11 02:42:00,
2014-02-10 18:47:00,45.1,0.0,29.90,SE,135,0.7,3.1,255,0.00,,,0.74,fowsr,2014-02-11 02:47:00,
2014-02-10 18:52:00,45.3,0.0,29.89,East,90,1.6,4.5,255,0.00,,,0.73,fowsr,2014-02-11 02:52:00,
2014-02-10 18:57:00,45.3,0.0,29.89,SW,225,0.0,1.6,255,0.00,,,0.73,fowsr,2014-02-11 02:57:00,
2014-02-10 19:02:00,45.1,0.0,29.89,South,180,3.1,7.6,255,0.00,,,0.73,fowsr,2014-02-11 03:02:00,
2014-02-10 19:07:00,45.1,0.0,29.89,South,180,3.1,7.6,255,0.00,,,0.73,fowsr,2014-02-11 03:07:00,
2014-02-10 19:12:00,45.3,0.0,29.89,South,180,0.7,2.2,255,0.00,,,0.73,fowsr,2014-02-11 03:12:00,
2014-02-10 19:17:00,45.1,0.0,29.89,SW,225,0.0,0.7,255,0.00,,,0.73,fowsr,2014-02-11 03:17:00,
2014-02-10 19:22:00,45.0,0.0,29.89,SW,225,0.7,2.2,255,0.00,,,0.73,fowsr,2014-02-11 03:22:00,
2014-02-10 19:27:00,45.1,0.0,29.88,NW,315,2.2,4.5,255,0.00,,,0.73,fowsr,2014-02-11 03:27:00,
2014-02-10 19:32:00,45.3,0.0,29.89,NW,315,3.1,5.4,255,0.00,,,0.73,fowsr,2014-02-11 03:32:00,
2014-02-10 19:37:00,45.7,0.0,29.89,West,270,1.6,3.8,255,0.00,,,0.73,fowsr,2014-02-11 03:37:00,
2014-02-10 19:42:00,45.5,0.0,29.88,South,180,2.2,3.1,255,0.01,,,0.74,fowsr,2014-02-11 03:42:00,
2014-02-10 19:47:00,45.1,0.0,29.88,East,90,0.7,3.1,255,0.02,,,0.76,fowsr,2014-02-11 03:47:00,
2014-02-10 19:52:00,45.1,0.0,29.88,SW,225,0.7,2.2,255,0.02,,,0.76,fowsr,2014-02-11 03:52:00,
2014-02-10 19:57:00,45.0,0.0,29.89,West,270,0.7,3.1,255,0.04,,,0.77,fowsr,2014-02-11 03:57:00,
2014-02-10 20:02:00,45.0,0.0,29.88,SW,225,1.6,3.8,255,0.05,,,0.78,fowsr,2014-02-11 04:02:00,
2014-02-10 20:07:00,45.0,0.0,29.88,SW,225,2.2,4.5,255,0.05,,,0.78,fowsr,2014-02-11 04:07:00,
2014-02-10 20:16:00,44.8,0.0,29.88,West,270,0.7,2.2,255,0.05,,,0.78,fowsr,2014-02-11 04:16:00,
2014-02-10 20:22:00,44.8,0.0,29.88,NW,315,0.0,2.2,255,0.05,,,0.78,fowsr,2014-02-11 04:22:00,
2014-02-10 20:27:00,44.6,0.0,29.88,NW,315,1.6,3.8,255,0.05,,,0.78,fowsr,2014-02-11 04:27:00,
2014-02-10 20:32:00,45.3,0.0,29.89,South,180,3.1,6.9,255,0.06,,,0.79,fowsr,2014-02-11 04:32:00,
2014-02-10 20:37:00,45.5,0.0,29.90,SE,135,1.6,3.8,255,0.06,,,0.79,fowsr,2014-02-11 04:37:00,
2014-02-10 20:42:00,45.5,0.0,29.90,NE,45,3.1,6.0,255,0.06,,,0.79,fowsr,2014-02-11 04:42:00,
2014-02-10 20:47:00,45.5,0.0,29.90,South,180,3.1,8.3,255,0.05,,,0.79,fowsr,2014-02-11 04:47:00,
2014-02-10 20:52:00,45.5,0.0,29.90,SW,225,2.2,4.5,255,0.05,,,0.79,fowsr,2014-02-11 04:52:00,
2014-02-10 20:57:00,45.5,0.0,29.90,South,180,1.6,5.4,255,0.04,,,0.79,fowsr,2014-02-11 04:57:00,
2014-02-10 21:02:00,45.3,0.0,29.90,South,180,1.6,5.4,255,0.02,,,0.79,fowsr,2014-02-11 05:02:00,
2014-02-10 21:04:00,45.3,0.0,29.91,South,180,1.6,5.4,255,0.01,,,0.79,fowsr,2014-02-11 05:04:00,
2014-02-10 21:07:00,45.3,0.0,29.91,SW,225,3.1,6.9,255,0.01,,,0.79,fowsr,2014-02-11 05:07:00,
2014-02-10 21:09:00,45.1,0.0,29.90,South,180,4.5,9.8,255,0.01,,,0.79,fowsr,2014-02-11 05:09:00,
2014-02-10 21:14:00,45.0,0.0,29.90,SW,225,1.6,3.1,255,0.01,,,0.79,fowsr,2014-02-11 05:14:00,
2014-02-10 21:22:00,44.6,0.0,29.91,SW,225,5.4,14.5,255,0.01,,,0.79,fowsr,2014-02-11 05:22:00,
2014-02-10 21:27:00,44.6,0.0,29.91,NW,315,2.2,4.5,255,0.01,,,0.79,fowsr,2014-02-11 05:27:00,
2014-02-10 21:32:00,44.6,0.0,29.91,South,180,3.8,6.0,255,0.01,,,0.79,fowsr,2014-02-11 05:32:00,
2014-02-10 21:37:00,44.6,0.0,29.91,South,180,3.1,6.9,255,0.00,,,0.78,fowsr,2014-02-11 05:37:00,
2014-02-10 21:42:00,44.8,0.0,29.91,SW,225,0.7,3.8,255,0.00,,,0.78,fowsr,2014-02-11 05:42:00,
2014-02-10 21:47:00,44.8,0.0,29.91,West,270,0.7,3.1,255,0.00,,,0.78,fowsr,2014-02-11 05:47:00,
2014-02-10 21:52:00,44.8,0.0,29.91,South,180,3.8,6.0,255,0.00,,,0.78,fowsr,2014-02-11 05:52:00,
2014-02-10 21:57:00,45.0,0.0,29.91,NW,315,3.1,6.0,255,0.00,,,0.78,fowsr,2014-02-11 05:57:00,
2014-02-10 22:02:00,45.0,0.0,29.91,South,180,3.8,8.3,255,0.00,,,0.78,fowsr,2014-02-11 06:02:00,
2014-02-10 22:07:00,45.3,0.0,29.92,SW,225,1.6,3.8,255,0.00,,,0.78,fowsr,2014-02-11 06:07:00,
2014-02-10 22:12:00,45.0,0.0,29.92,West,270,0.0,2.2,255,0.00,,,0.78,fowsr,2014-02-11 06:12:00,
2014-02-10 22:17:00,45.1,0.0,29.92,NW,315,1.6,3.1,255,0.00,,,0.78,fowsr,2014-02-11 06:17:00,
2014-02-10 22:22:00,45.0,0.0,29.92,South,180,1.6,3.8,255,0.00,,,0.78,fowsr,2014-02-11 06:22:00,
2014-02-10 22:27:00,44.8,0.0,29.92,SW,225,1.6,3.8,255,0.00,,,0.78,fowsr,2014-02-11 06:27:00,
2014-02-10 22:32:00,45.0,0.0,29.92,SE,135,0.0,1.6,255,0.00,,,0.78,fowsr,2014-02-11 06:32:00,
2014-02-10 22:37:00,44.8,0.0,29.93,SE,135,2.2,4.5,255,0.00,,,0.78,fowsr,2014-02-11 06:37:00,
2014-02-10 22:42:00,45.1,0.0,29.93,NW,315,1.6,3.8,255,0.00,,,0.78,fowsr,2014-02-11 06:42:00,
2014-02-10 22:47:00,45.0,0.0,29.93,South,180,0.7,2.2,255,0.00,,,0.78,fowsr,2014-02-11 06:47:00,
2014-02-10 22:52:00,45.1,0.0,29.93,South,180,2.2,4.5,255,0.00,,,0.78,fowsr,2014-02-11 06:52:00,
2014-02-10 22:57:00,45.5,0.0,29.93,South,180,1.6,5.4,255,0.00,,,0.78,fowsr,2014-02-11 06:57:00,
2014-02-10 23:02:00,45.5,0.0,29.93,SE,135,2.2,4.5,255,0.00,,,0.78,fowsr,2014-02-11 07:02:00,
2014-02-10 23:07:00,45.9,0.0,29.93,West,270,1.6,3.8,255,0.00,,,0.78,fowsr,2014-02-11 07:07:00,
2014-02-10 23:12:00,46.4,0.0,29.93,South,180,3.8,7.6,255,0.00,,,0.78,fowsr,2014-02-11 07:12:00,
2014-02-10 23:17:00,46.2,0.0,29.93,SE,135,0.7,3.8,255,0.00,,,0.78,fowsr,2014-02-11 07:17:00,
2014-02-10 23:22:00,45.9,0.0,29.93,SW,225,0.7,3.8,255,0.00,,,0.78,fowsr,2014-02-11 07:22:00,
2014-02-10 23:27:00,46.2,0.0,29.94,West,270,3.1,5.4,255,0.00,,,0.78,fowsr,2014-02-11 07:27:00,
2014-02-10 23:32:00,46.4,0.0,29.94,SW,225,4.5,7.6,255,0.00,,,0.78,fowsr,2014-02-11 07:32:00,
2014-02-10 23:37:00,46.6,0.0,29.94,North,0,3.1,6.0,255,0.00,,,0.78,fowsr,2014-02-11 07:37:00,
2014-02-10 23:42:00,46.6,0.0,29.95,South,180,3.1,11.4,255,0.00,,,0.78,fowsr,2014-02-11 07:42:00,
2014-02-10 23:47:00,46.4,0.0,29.95,West,270,3.8,8.3,255,0.00,,,0.78,fowsr,2014-02-11 07:47:00,
2014-02-10 23:52:00,46.6,0.0,29.95,NW,315,0.7,2.2,255,0.00,,,0.78,fowsr,2014-02-11 07:52:00,
2014-02-10 23:57:00,46.6,0.0,29.95,South,180,2.2,5.4,255,0.00,,,0.78,fowsr,2014-02-11 07:57:00,